SCP
0 0 0 0 0 0 0 0 0 0 0 0 0 0 0 0 0 0 0 0 0 0 0 0 1 0 0 0 0 0 0 0 0 0 0 0 0 0
0 0 0 0 0 0 0 0 0 0 0 0 0 0 0 0 0 0 0 0 0 0 0 0 0 0 0 0 0 0 0 0 0 0 0 0 0 0
0 0 0 0 0 0 0 0 0 0 0 0 0 0 0 0 0 0 0 0 0 0 0 0 0 0 0 0 0 0 0 0 0 0 0 0 0 0
0 0 0 0 0 0 0 0 0 0 0 0 0 0 0 0 0 0 0 0 0 0 0 0 0 0 0 0 0 0 0 0 0 0 0 0 0 0
0 0 0 0 0 0 0 0 0 0 0 0 0 0 0 0 0 0 0 0 0 0 0 0 0 0 0 0 0 0 0 0 0 0 0 0 0 0
0 0 0 0 0 0 0 0 0 0 0 0 0 0 0 0 0 0 0 0 0 0 0 0 0 0 0 0 0 0 0 0 0 0 0 0 0 0
0 0 0 0 0 0 0 0 0 0 0 0 0 0 0 0 0 0 0 0 0 0 0 0 0 0 0 0 0 0 0 0 0 0 0 0 0 0
0 0 0 0 0 0 0 0 0 -0 -0 0 0 0 0 0 0 0 0 0 0 0 0 0 0 0 0 0 0 0 0 0 0 0 0 0 0 0
0 0 0 0 0 0 0 0 0 -0 -0 0 0 0 0 0 0 0 0 0 0 0 0 0 0 0 0 0 0 0 0 0 0 0 0 0 0 0
0 0 0 0 0 0 0 0 -0 -0 -0 0 0 0 0 0 0 0 0 0 0 0 0 0 0 0 0 0 0 0 0 0 0 0 0 0 0 0
0 0 0 0 0 0 0 0 0 0 -0 0 0 0 0 0 0 0 0 0 0 0 0 0 0 0 0 0 0 0 0 0 0 0 0 0 0 0
0 0 0 0 0 0 0 0 0 0 0 0 0 0 0 0 0 0 0 0 0 0 0 0 0 0 0 0 0 0 0 0 0 0 0 0 0 0
0 0 0 0 0 0 0 0 0 0 0 0 0 0 0 0 0 0 0 0 0 0 0 0 0 0 0 0 0 0 0 0 0 0 0 0 0 0
0 0 0 0 0 0 0 0 0 0 0 0 0 0 0 0 0 0 0 0 0 0 0 0 0 0 0 0 0 0 0 0 0 0 0 0 0 0
0 0 0 0 0 0 0 0 0 0 0 0 0 0 0 0 0 0 0 0 0 0 0 0 0 0 0 0 0 0 0 0 0 0 0 0 0 0
0 0 0 0 0 0 0 0 0 0 0 0 0 0 0 0 0 0 0 0 0 0 0 0 0 0 0 0 0 0 0 0 0 0 0 0 0 0
0 0 0 0 0 0 0 0 0 0 0 0 0 0 0 0 0 0 0 0 0 0 0 0 0 0 0 0 0 0 0 0 0 0 0 0 0 0
0 0 0 0 0 0 0 0 0 0 0 0 0 0 0 0 0 0 0 0 0 0 0 0 0 0 0 0 0 0 0 0 0 0 0 0 0 0
0 0 0 0 0 0 0 0 0 0 0 0 0 0 0 0 0 0 0 0 0 0 0 0 0 0 0 0 0 0 0 0 0 0 0 0 0 0
0 0 0 0 0 0 0 0 0 0 0 0 0 0 0 0 0 0 0 0 0 0 0 0 0 0 0 0 0 0 0 0 0 0 0 0 0 0
0 0 0 0 0 0 0 0 0 0 0 0 0 0 0 0 0 0 0 0 0 0 0 0 0 0 0 0 0 0 0 0 0 0 0 0 0 0
0 0 0 0 0 0 0 0 0 0 0 0 0 0 0 0 0 0 0 0 0 0 0 0 0 0 0 0 0 0 0 0 0 0 0 0 0 0
0 0 0 0 0 0 0 0 0 0 0 0 0 0 0 0 0 0 0 0 0 0 0 0 0 0 0 0 0 0 0 0 0 0 0 0 0 0
Wind_Speed
10 11 10 9 9 8 9 9 10 10 8 7 5 3 2 2 3 2 3 14 18 17 5 9 19 22 24 23 23 21 21 22 25 24 25 25 25 24
9 10 11 9 8 7 7 7 8 10 10 9 6 4 4 4 5 5 8 13 21 25 23 12 20 24 26 28 27 25 23 22 22 23 24 24 24 22
11 11 12 11 8 7 8 9 9 10 10 8 4 4 6 7 6 6 8 7 12 26 29 29 21 21 26 27 25 24 23 22 22 22 22 22 21 21
12 12 12 11 11 9 8 10 9 7 7 8 6 3 4 8 9 9 7 8 9 20 26 30 28 24 27 27 24 24 21 20 20 22 22 23 23 23
12 13 13 13 12 10 10 8 7 7 7 8 6 3 4 6 10 9 7 8 9 14 19 26 24 21 25 23 25 25 23 23 24 24 23 24 25 25
12 12 13 13 13 12 10 10 8 8 8 9 6 6 7 6 8 9 8 7 7 6 11 16 18 20 21 20 22 24 23 24 25 25 25 25 25 25
12 12 12 16 19 16 12 10 9 9 8 8 6 7 8 9 8 8 11 9 9 5 7 9 10 9 10 12 16 22 24 23 23 24 25 24 23 22
12 12 13 15 16 17 18 16 13 12 9 5 8 10 11 9 10 10 11 9 6 3 6 8 7 8 7 9 17 22 24 24 23 22 23 22 21 20
11 12 11 11 14 10 13 15 14 13 8 2 10 13 13 14 15 12 8 8 8 6 8 9 7 8 9 12 22 23 23 24 24 22 22 22 20 19
11 12 13 13 12 11 7 6 7 8 8 7 9 11 13 14 13 14 15 15 12 7 7 12 10 9 10 12 20 21 22 23 24 23 22 20 19 18
11 12 14 13 17 15 5 1 4 5 6 12 13 16 20 21 19 16 15 15 12 8 6 10 11 10 10 9 12 17 19 20 20 20 19 17 16 15
11 12 17 16 19 18 10 9 11 12 15 19 21 21 19 18 17 14 14 14 14 9 4 7 10 8 7 7 8 9 11 17 18 16 15 14 11 8
9 10 11 16 18 19 15 12 12 12 15 16 14 13 12 11 10 9 7 9 11 9 9 7 8 7 7 6 7 8 8 9 9 11 13 14 12 9
9 9 11 17 17 16 13 14 14 12 10 10 10 10 10 10 10 10 10 10 10 12 10 7 8 10 10 9 6 7 8 7 7 7 7 11 13 14
11 15 17 17 15 12 13 14 11 9 9 9 10 10 9 11 12 12 14 14 13 11 10 10 10 10 9 8 7 8 8 7 7 7 7 7 6 6
13 15 18 16 14 13 10 8 8 8 8 9 10 10 10 10 10 11 11 11 11 8 9 11 11 11 11 11 10 8 7 7 7 7 8 8 8 7
11 10 12 11 11 10 9 8 7 8 9 10 10 10 9 10 9 10 9 10 11 11 10 10 12 12 11 10 10 9 10 9 8 9 10 10 9 8
10 9 10 10 10 10 9 7 7 8 7 9 9 9 10 10 10 9 9 9 10 11 10 10 11 12 11 12 10 9 10 10 9 9 10 12 10 8
9 9 9 9 9 9 8 7 6 5 6 7 9 9 10 10 10 8 8 10 10 10 9 9 10 10 11 10 8 7 10 10 10 9 9 10 11 8
9 8 8 8 8 8 8 7 6 5 5 7 9 9 9 9 8 7 8 10 10 10 9 8 9 9 10 11 9 6 5 8 10 10 8 7 8 7
8 8 7 7 7 7 7 7 6 5 5 7 8 9 8 9 8 7 8 11 11 10 9 9 11 12 10 11 11 8 6 6 5 6 5 6 6 5
8 7 7 7 7 6 6 6 6 5 5 7 7 7 7 8 9 10 10 10 10 10 10 10 11 11 10 12 12 9 5 5 6 7 4 3 1 2
7 7 6 5 5 5 5 5 5 5 4 6 7 7 8 9 9 9 9 9 10 11 12 10 10 12 11 11 11 9 7 6 6 9 11 11 12 14
Wind_Direction
263 260 252 252 242 239 239 240 260 273 273 262 243 184 160 184 114 79 33 26 20 15 359 125 117 118 112 112 111 115 111 102 101 106 107 110 109 108
261 257 256 255 250 243 243 242 240 253 263 261 247 147 156 136 102 70 60 44 47 42 35 67 100 105 108 105 102 101 100 100 101 101 102 103 103 104
280 275 274 272 264 254 248 246 243 235 245 254 238 155 147 137 109 84 73 54 54 58 52 46 50 84 95 93 93 93 91 92 95 98 101 102 103 102
290 284 278 274 265 253 245 243 241 233 241 256 240 147 130 137 118 97 83 70 57 65 69 61 45 46 67 77 79 77 80 85 89 91 93 94 94 92
282 276 270 264 257 251 246 243 239 237 237 246 233 151 121 132 109 95 86 79 67 66 70 74 63 52 60 67 73 74 75 78 78 81 84 87 86 86
289 281 273 264 259 256 249 241 234 231 230 232 210 148 140 131 118 113 97 75 69 53 63 72 73 67 66 69 76 80 79 79 79 79 78 78 80 83
301 298 291 289 283 267 255 239 225 226 228 223 168 142 143 143 130 122 110 97 69 40 61 55 57 58 61 73 78 80 80 80 79 78 78 80 82 85
306 307 307 304 297 285 269 255 234 227 232 204 149 150 151 139 132 136 127 124 99 49 80 69 63 70 62 71 84 87 89 89 89 89 90 91 91 92
319 318 317 315 308 287 268 251 242 241 242 191 155 154 151 147 141 133 121 106 109 119 108 92 83 81 74 76 83 86 90 94 96 94 93 92 90 90
330 331 330 325 323 314 270 232 219 215 209 188 162 151 144 141 134 123 116 108 104 105 109 105 98 87 84 81 81 84 88 91 94 93 92 91 89 89
337 341 345 342 347 345 341 83 117 95 111 112 112 117 126 128 127 121 121 121 118 117 107 109 109 101 87 80 75 76 83 86 88 92 93 92 91 90
343 349 352 359 8 13 32 59 76 81 92 88 89 94 103 113 117 120 130 128 128 123 123 126 128 120 92 70 65 63 75 75 74 80 89 90 92 94
350 351 352 8 23 26 44 57 70 83 93 96 99 100 99 99 100 100 108 124 128 120 141 143 130 110 100 98 68 65 73 73 76 77 78 75 73 75
1 357 359 12 25 32 45 53 64 74 84 92 96 97 98 98 99 98 95 91 97 111 118 110 111 115 112 103 89 81 72 69 75 79 79 79 76 71
9 10 13 19 19 28 42 49 60 69 78 86 90 90 94 99 97 96 96 96 93 95 93 99 105 110 105 101 104 104 94 71 74 84 85 83 91 95
9 16 19 19 20 20 24 51 68 79 87 85 88 94 98 95 97 109 110 110 110 111 109 105 103 104 107 108 108 108 105 94 89 89 94 89 88 85
13 19 16 15 15 16 19 44 66 78 86 92 100 103 98 99 102 113 114 114 117 117 106 96 91 89 96 106 107 105 104 103 101 99 100 94 83 79
26 25 18 12 13 11 14 27 48 77 90 103 108 102 105 109 112 107 98 105 111 113 113 114 112 108 97 82 81 104 107 107 103 99 101 100 92 84
26 20 18 15 8 5 12 20 26 53 80 89 101 111 113 113 115 111 112 114 112 115 121 128 127 125 120 109 88 81 111 113 110 101 96 96 99 97
21 15 12 9 7 4 6 11 21 35 71 93 106 119 121 119 119 117 120 122 121 123 122 123 123 124 124 121 118 94 67 113 115 110 108 103 96 99
12 10 6 3 3 2 0 5 17 27 64 100 107 118 126 125 119 117 117 118 121 123 122 118 112 112 115 119 114 109 73 66 91 119 134 133 129 143
4 4 5 0 357 356 356 4 10 17 54 105 109 110 115 120 122 124 123 122 121 120 117 116 118 118 125 127 124 123 114 90 75 78 49 346 267 130
2 357 356 353 350 350 353 360 10 17 34 104 111 111 116 118 120 120 117 115 117 121 125 123 122 122 123 126 127 128 126 116 105 89 62 49 67 75